Location: Maiden
(35.5760°N, 81.2120°W)
Time: 02:07:54
(UTC-04:00)

ISS - Visible Passes

Search period start: 30 July 2015 00:00
Search period end: 09 August 2015 00:00
Orbit: 401 x 403 km, 51.6° (Epoch: 29 July)

Date Brightness Start Highest point End Pass type
(mag) Time Alt. Az. Time Alt. Az. Time Alt. Az.
30 Jul 0.1 04:05:22 10° N 04:06:35 12° NNE 04:07:53 10° NE visible
30 Jul -3.2 05:40:16 10° NW 05:43:31 76° NE 05:46:47 10° SE visible
30 Jul -3.0 22:17:22 10° WSW 22:20:35 63° NW 22:23:41 11° NE visible
31 Jul -1.7 04:47:28 10° NNW 04:50:32 36° NE 04:53:34 10° ESE visible
31 Jul -3.3 21:24:28 10° SW 21:27:39 56° SE 21:30:51 10° NE visible
31 Jul -0.2 23:02:11 10° WNW 23:04:21 16° NNW 23:06:28 10° NNE visible
01 Aug -0.6 03:55:05 11° NNW 03:57:24 20° NNE 03:59:58 10° E visible
01 Aug -2.8 05:30:54 10° WNW 05:33:57 37° SW 05:36:59 10° SSE visible
01 Aug -1.0 22:08:22 10° W 22:11:11 26° NNW 22:14:00 10° NNE visible
02 Aug -2.1 04:42:28 31° SE 04:42:28 31° SE 04:44:19 10° SE visible
02 Aug -2.4 21:14:58 10° WSW 21:18:08 51° NW 21:21:19 10° NE visible
03 Aug -0.1 22:00:03 10° WNW 22:01:58 14° NNW 22:03:49 10° N visible
04 Aug -0.7 21:06:06 10° W 21:08:47 23° NNW 21:11:26 10° NNE visible
06 Aug -0.2 20:58:00 10° NW 20:59:36 13° NNW 21:01:07 10° N visible
